Weather History for Winchester, VA

Change the Weather History Date:

Tuesday, February 26, 2013

  Actual Average Record
Temperature  
Mean Temperature 32 °F -  
Max Temperature 39 °F 47 °F 69 °F (2002)
Min Temperature 26 °F 29 °F 8 °F (1990)
Degree Days  
Heating Degree Days 32    
Moisture  
Dew Point 31 °F    
Average Humidity 90    
Maximum Humidity 100    
Minimum Humidity 75    
Precipitation  
Precipitation 0.40 in - - ()
Sea Level Pressure  
Sea Level Pressure 29.98 in    
Wind  
Wind Speed 2 mph (ENE)    
Max Wind Speed 8 mph    
Max Gust Speed -    
Visibility 6 miles    
Events Rain    
Averages and records for this station are not official NWS values.
T = Trace of Precipitation, MM = Missing Value Source: NWS Daily Summary

Daily Weather History Graph

Daily Weather History Graph

Search for Another Location

Airport:

Trip Planner

Search our weather history database for the weather conditions in past years. The results will help you decide how hot, cold, wet, or windy it might be!

Date:

Astronomy

Feb. 26, 2013 Rise Set
Actual Time 6:49 AM EST 6:02 PM EST
Civil Twilight 6:22 AM EST 6:29 PM EST
Nautical Twilight 5:51 AM EST 7:00 PM EST
Astronomical Twilight 5:20 AM EST 7:31 PM EST
Moon 7:15 PM EST 6:51 AM EST
Length of Visible Light 12h 06m
Length of Day
11h 13m
Full, 99% of the Moon is Illuminated
Feb 26
Full
Mar 4
Last Quarter
Mar 11
New
Mar 19
First Quarter
Mar 27
Full

Hourly Weather History & Observations

Time (EST) Temp. Windchill Dew Point Humidity Pressure Visibility Wind Dir Wind Speed Gust Speed Precip Events Conditions
12:15 AM 28.4 °F - 23.0 °F 80% 30.17 in 10.0 mi Calm Calm - N/A   Clear
12:35 AM 28.4 °F - 23.0 °F 80% 30.16 in 10.0 mi Calm Calm - N/A   Clear
12:55 AM 28.4 °F - 23.0 °F 80% 30.16 in 10.0 mi Calm Calm - N/A   Clear
1:15 AM 28.4 °F - 23.0 °F 80% 30.16 in 10.0 mi Calm Calm - N/A   Clear
1:35 AM 28.4 °F - 23.0 °F 80% 30.17 in 10.0 mi Calm Calm - N/A   Clear
1:55 AM 28.4 °F 24.6 °F 23.0 °F 80% 30.18 in 10.0 mi SE 3.5 mph - N/A   Clear
2:15 AM 28.4 °F 23.3 °F 23.0 °F 80% 30.18 in 10.0 mi ESE 4.6 mph - N/A   Clear
2:35 AM 28.4 °F - 23.0 °F 80% 30.16 in 10.0 mi Calm Calm - N/A   Clear
2:55 AM 28.4 °F - 23.0 °F 80% 30.16 in 10.0 mi Calm Calm - N/A   Clear
3:15 AM 28.4 °F - 23.0 °F 80% 30.15 in 10.0 mi Calm Calm - N/A   Clear
3:35 AM 26.6 °F - 23.0 °F 86% 30.14 in 10.0 mi Calm Calm - N/A   Clear
3:55 AM 28.4 °F - 23.0 °F 80% 30.14 in 10.0 mi Calm Calm - N/A   Clear
4:15 AM 28.4 °F - 23.0 °F 80% 30.12 in 10.0 mi Calm Calm - N/A   Clear
4:35 AM 26.6 °F - 23.0 °F 86% 30.12 in 10.0 mi Calm Calm - N/A   Clear
4:55 AM 28.4 °F - 23.0 °F 80% 30.13 in 10.0 mi Calm Calm - N/A   Clear
5:15 AM 28.4 °F - 23.0 °F 80% 30.13 in 10.0 mi Calm Calm - N/A   Clear
5:35 AM 28.4 °F - 23.0 °F 80% 30.13 in 10.0 mi Calm Calm - N/A   Clear
5:55 AM 28.4 °F - 23.0 °F 80% 30.13 in 10.0 mi Calm Calm - N/A   Clear
6:15 AM 28.4 °F - 24.8 °F 86% 30.14 in 10.0 mi Calm Calm - N/A   Clear
6:35 AM 28.4 °F - 24.8 °F 86% 30.14 in 10.0 mi Calm Calm - N/A   Clear
6:55 AM 28.4 °F - 24.8 °F 86% 30.13 in 10.0 mi Calm Calm - N/A   Clear
7:15 AM 30.2 °F - 24.8 °F 80% 30.12 in 10.0 mi Calm Calm - N/A   Scattered Clouds
7:35 AM 30.2 °F - 24.8 °F 80% 30.13 in 10.0 mi Calm Calm - N/A   Scattered Clouds
7:55 AM 32.0 °F - 26.6 °F 80% 30.13 in 10.0 mi Calm Calm - N/A   Clear
8:15 AM 32.0 °F 27.5 °F 28.4 °F 87% 30.13 in 10.0 mi East 4.6 mph - N/A   Clear
8:35 AM 33.8 °F 29.6 °F 26.6 °F 75% 30.14 in 10.0 mi ENE 4.6 mph - N/A   Clear
8:55 AM 33.8 °F 28.6 °F 26.6 °F 75% 30.13 in 10.0 mi East 5.8 mph - N/A   Mostly Cloudy
9:15 AM 33.8 °F 30.8 °F 28.4 °F 81% 30.14 in 10.0 mi East 3.5 mph - N/A   Overcast
9:35 AM 33.8 °F 30.8 °F 28.4 °F 81% 30.14 in 10.0 mi ESE 3.5 mph - N/A   Overcast
9:55 AM 33.8 °F 29.6 °F 28.4 °F 81% 30.13 in 10.0 mi East 4.6 mph - N/A   Overcast
10:15 AM 35.6 °F 30.7 °F 28.4 °F 75% 30.12 in 10.0 mi East 5.8 mph - N/A   Overcast
10:35 AM 35.6 °F 30.7 °F 28.4 °F 75% 30.11 in 10.0 mi ESE 5.8 mph - N/A   Overcast
10:55 AM 35.6 °F 29.2 °F 28.4 °F 75% 30.11 in 10.0 mi East 8.1 mph - N/A   Overcast
11:15 AM 35.6 °F 29.9 °F 30.2 °F 81% 30.11 in 10.0 mi East 6.9 mph - N/A   Drizzle
11:35 AM 33.8 °F 28.6 °F 30.2 °F 87% 30.10 in 7.0 mi East 5.8 mph - N/A Rain Rain
11:55 AM 33.8 °F 29.6 °F 32.0 °F 93% 30.09 in 4.0 mi East 4.6 mph - N/A Rain Light Rain
12:15 PM 33.8 °F - 32.0 °F 93% 30.09 in 4.0 mi Calm Calm - 0.01 in Rain Light Rain
12:35 PM 33.8 °F - 32.0 °F 93% 30.07 in 4.0 mi Calm Calm - 0.02 in Rain Light Rain
12:55 PM 33.8 °F 30.8 °F 32.0 °F 93% 30.05 in 2.5 mi NE 3.5 mph - 0.04 in Rain Light Rain
1:15 PM 33.8 °F 29.6 °F 32.0 °F 93% 30.02 in 2.5 mi NE 4.6 mph - 0.01 in Rain Rain
1:35 PM 33.8 °F 30.8 °F 33.8 °F 100% 30.00 in 2.0 mi NE 3.5 mph - 0.02 in Rain Light Rain
1:55 PM 33.8 °F 30.8 °F 33.8 °F 100% 30.00 in 1.8 mi NE 3.5 mph - 0.04 in Rain Light Rain
2:15 PM 33.8 °F 28.6 °F 33.8 °F 100% 29.97 in 2.0 mi ENE 5.8 mph - 0.01 in Rain Light Rain
2:35 PM 33.8 °F 28.6 °F 33.8 °F 100% 29.94 in 3.0 mi ENE 5.8 mph - 0.01 in Rain Rain
2:55 PM 33.8 °F 27.7 °F 33.8 °F 100% 29.93 in 3.0 mi ENE 6.9 mph - 0.01 in Rain Light Rain
3:15 PM 33.8 °F 27.7 °F 33.8 °F 100% 29.91 in 3.0 mi East 6.9 mph - N/A Rain Rain
3:35 PM 35.6 °F 29.9 °F 35.6 °F 100% 29.90 in 3.0 mi East 6.9 mph - N/A Rain Rain
3:55 PM 35.6 °F 29.9 °F 35.6 °F 100% 29.88 in 2.5 mi East 6.9 mph - N/A Rain Light Rain
4:15 PM 35.6 °F 29.2 °F 35.6 °F 100% 29.86 in 2.0 mi ENE 8.1 mph - N/A Rain Light Rain
4:35 PM 35.6 °F 29.9 °F 35.6 °F 100% 29.84 in 2.5 mi ENE 6.9 mph - 0.01 in Rain Light Rain
4:55 PM 37.4 °F 32.8 °F 37.4 °F 100% 29.81 in 2.0 mi ENE 5.8 mph - 0.03 in Rain Light Rain
5:15 PM 37.4 °F 32.8 °F 37.4 °F 100% 29.80 in 2.0 mi NNE 5.8 mph - N/A Rain Light Rain
5:35 PM 37.4 °F 33.8 °F 37.4 °F 100% 29.79 in 2.0 mi NNE 4.6 mph - 0.01 in Rain Heavy Rain
5:55 PM 37.4 °F 33.8 °F 37.4 °F 100% 29.77 in 2.0 mi ENE 4.6 mph - 0.02 in Rain Heavy Rain
6:15 PM 37.4 °F 32.1 °F 37.4 °F 100% 29.75 in 5.0 mi ENE 6.9 mph - 0.01 in Rain Light Rain
6:35 PM 37.4 °F 34.9 °F 37.4 °F 100% 29.76 in 5.0 mi ENE 3.5 mph - 0.05 in Rain Light Rain
6:55 PM 37.4 °F 32.8 °F 37.4 °F 100% 29.73 in 4.0 mi ENE 5.8 mph - 0.07 in Rain Light Rain
7:15 PM 37.4 °F 32.8 °F 37.4 °F 100% 29.73 in 4.0 mi ENE 5.8 mph - 0.03 in Rain Rain
7:35 PM 39.2 °F 35.0 °F 39.2 °F 100% 29.75 in 3.0 mi ENE 5.8 mph - 0.06 in Rain Rain
7:55 PM 39.2 °F - 39.2 °F 100% 29.77 in 4.0 mi Calm Calm - 0.10 in Rain Rain
8:15 PM 39.2 °F - 39.2 °F 100% 29.77 in 3.0 mi Calm Calm - 0.03 in Rain Rain
8:35 PM 37.4 °F 34.9 °F 37.4 °F 100% 29.76 in 3.0 mi North 3.5 mph - 0.07 in Rain Rain
8:55 PM 37.4 °F 32.8 °F 37.4 °F 100% 29.74 in 4.0 mi North 5.8 mph - 0.08 in Rain Light Rain
9:15 PM 37.4 °F 32.1 °F 37.4 °F 100% 29.72 in 5.0 mi NNE 6.9 mph - N/A   Drizzle
9:35 PM 37.4 °F 32.8 °F 37.4 °F 100% 29.69 in 5.0 mi NE 5.8 mph - N/A   Drizzle
9:55 PM 37.4 °F 32.8 °F 37.4 °F 100% 29.69 in 5.0 mi NE 5.8 mph - N/A   Light Drizzle
10:15 PM 37.4 °F 32.8 °F 37.4 °F 100% 29.68 in 5.0 mi NNE 5.8 mph - N/A   Drizzle
10:35 PM 37.4 °F 31.4 °F 37.4 °F 100% 29.67 in 5.0 mi NNE 8.1 mph - N/A   Drizzle
10:55 PM 37.4 °F 32.8 °F 37.4 °F 100% 29.65 in 4.0 mi NNE 5.8 mph - N/A   Drizzle
11:15 PM 37.4 °F 32.8 °F 37.4 °F 100% 29.65 in 4.0 mi North 5.8 mph - 0.01 in   Light Drizzle
11:35 PM 37.4 °F 33.8 °F 37.4 °F 100% 29.65 in 3.0 mi NNW 4.6 mph - 0.01 in   Overcast
11:55 PM 37.4 °F 34.9 °F 37.4 °F 100% 29.63 in 2.5 mi North 3.5 mph - 0.01 in   Drizzle